Muskegon, MI

8:48 PM EDT on October 16, 2019 (GMT -0400)
Muskegon County

Weather History for KMKG - August, 2019

Change the Weather History Date:

Sunday, August 4, 2019

  Actual Average Record
Temperature  
Mean Temperature 74 °F 71 °F  
Max Temperature 85 °F 80 °F 92 °F (1988)
Min Temperature 63 °F 62 °F 41 °F (1907)
Degree Days  
Heating Degree Days 0 0  
Month to date heating degree days 0 0  
Since 1 June heating degree days 58 77  
Since 1 July heating degree days 1 11  
Cooling Degree Days 9 6  
Month to date cooling degree days 21 24  
Year to date cooling degree days 387 360  
Since 1 June cooling degree days 384 331  
Growing Degree Days 24 (Base 50)    
Moisture  
Dew Point 62 °F    
Average Humidity 70    
Maximum Humidity 90    
Minimum Humidity 50    
Precipitation  
Precipitation 0.00 in 0.10 in 3.14 in (1924)
Month to date precipitation 0.00 0.41  
Year to date precipitation 24.97 17.60  
Snow  
Snow 0.00 in 0.00 in - ()
Month to date snowfall 0.0 0.0  
Since 1 June snowfall 0.0 0.0  
Since 1 July snowfall 0.0 0.0  
Snow Depth 0.00 in    
Sea Level Pressure  
Sea Level Pressure 30.03 in    
Wind  
Wind Speed 5 mph (NW)    
Max Wind Speed 14 mph    
Max Gust Speed 20 mph    
Visibility 10 miles    
Events Fog    
T = Trace of Precipitation, MM = Missing Value Source: NWS Daily Summary

Daily Weather History Graph

Daily Weather History Graph

Search for Another Location

Airport or City:

Astronomy

Aug. 04, 2019 Rise Set
Actual Time 6:38 AM EDT 9:03 PM EDT
Civil Twilight 6:06 AM EDT 9:35 PM EDT
Nautical Twilight 5:26 AM EDT 10:14 PM EDT
Astronomical Twilight 4:41 AM EDT 10:59 PM EDT
Moon 10:49 AM EDT (8/4) 11:35 PM EDT (8/4)
Length of Visible Light 15h 28m
Length of Day
14h 24m
Waxing Crescent, 18% of the Moon is Illuminated
Aug 4
Waxing Crescent
Aug 7
First Quarter
Aug 15
Full
Aug 23
Last Quarter
Aug 30
New

Hourly Weather History & Observations

Time (EDT) Temp. Heat Index Dew Point Humidity Pressure Visibility Wind Dir Wind Speed Gust Speed Precip Events Conditions
12:55 AM 66.0 °F - 61.0 °F 84% 30.04 in - Calm Calm - N/A   Clear
1:55 AM 66.9 °F - 62.1 °F 84% 30.04 in - Calm Calm - N/A   Clear
2:55 AM 66.0 °F - 62.1 °F 87% 30.03 in - Calm Calm - N/A   Clear
3:55 AM 69.1 °F - 63.0 °F 81% 30.03 in - North 3.5 mph - N/A   Clear
4:55 AM 66.0 °F - 61.0 °F 84% 30.02 in - Calm Calm - N/A   Clear
5:55 AM 63.0 °F - 59.0 °F 87% 30.03 in 10.0 mi SW 5.8 mph - N/A   Partly Cloudy
6:55 AM 64.0 °F - 60.1 °F 87% 30.05 in 7.0 mi Calm Calm - N/A Fog Shallow Fog
7:19 AM 66.0 °F - 62.1 °F 87% 30.06 in 9.0 mi Calm Calm - N/A Fog Shallow Fog
7:55 AM 70.0 °F - 64.9 °F 84% 30.06 in 9.0 mi Calm Calm - N/A   Scattered Clouds
8:55 AM 73.9 °F - 64.9 °F 73% 30.06 in 10.0 mi Calm Calm - N/A   Scattered Clouds
9:55 AM 78.1 °F - 66.0 °F 66% 30.06 in 10.0 mi Calm Calm - N/A   Mostly Cloudy
10:55 AM 81.0 °F 83.0 °F 66.0 °F 60% 30.06 in 10.0 mi Variable 4.6 mph - N/A   Mostly Cloudy
11:55 AM 82.0 °F 83.4 °F 64.0 °F 54% 30.05 in 10.0 mi Variable 4.6 mph - N/A   Scattered Clouds
12:55 PM 82.0 °F 83.8 °F 64.9 °F 56% 30.04 in 10.0 mi WSW 9.2 mph - N/A   Scattered Clouds
1:55 PM 82.0 °F 83.4 °F 64.0 °F 54% 30.03 in 10.0 mi WNW 11.5 mph - N/A   Scattered Clouds
2:55 PM 82.0 °F 83.4 °F 64.0 °F 54% 30.02 in 10.0 mi WNW 12.7 mph - N/A   Scattered Clouds
3:55 PM 82.0 °F 83.4 °F 64.0 °F 54% 30.01 in 10.0 mi WNW 12.7 mph - N/A   Scattered Clouds
4:55 PM 82.0 °F 83.4 °F 64.0 °F 54% 30.01 in 10.0 mi NW 10.4 mph - N/A   Scattered Clouds
5:55 PM 82.0 °F 83.0 °F 62.1 °F 51% 30.00 in 10.0 mi WNW 8.1 mph - N/A   Scattered Clouds
6:55 PM 80.1 °F 81.5 °F 63.0 °F 56% 29.99 in 10.0 mi WNW 9.2 mph - N/A   Scattered Clouds
7:55 PM 79.0 °F - 61.0 °F 54% 30.00 in 10.0 mi WNW 5.8 mph - N/A   Scattered Clouds
8:55 PM 77.0 °F - 57.9 °F 52% 29.99 in 10.0 mi North 4.6 mph - N/A   Scattered Clouds
9:55 PM 73.9 °F - 55.0 °F 52% 29.99 in 10.0 mi North 5.8 mph - N/A   Scattered Clouds
10:55 PM 70.0 °F - 57.0 °F 63% 29.99 in 10.0 mi Calm Calm - N/A   Partly Cloudy
11:55 PM 68.0 °F - 57.0 °F 68% 29.99 in 10.0 mi Calm Calm - N/A   Clear